Lanai City, HI

2:35 PM HST on April 22, 2018 (GMT -1000)
Lanai City

Weather History for PHNY - February, 2014

Change the Weather History Date:

Friday, February 7, 2014

  Actual Average Record
Temperature  
Mean Temperature 72 °F -  
Max Temperature 77 °F 75 °F 82 °F (2001)
Min Temperature 68 °F 57 °F 53 °F (1981)
Cooling Degree Days 8    
Growing Degree Days 22 (Base 50)    
Moisture  
Dew Point 69 °F    
Average Humidity 93    
Maximum Humidity 100    
Minimum Humidity 71    
Precipitation  
Precipitation 0.00 in - - ()
Sea Level Pressure  
Sea Level Pressure 29.93 in    
Wind  
Wind Speed 8 mph (NE)    
Max Wind Speed 15 mph    
Max Gust Speed -    
Visibility 9 miles    
Events Rain    
Averages and records for this station are not official NWS values.
T = Trace of Precipitation, MM = Missing Value Source: NWS Daily Summary

Daily Weather History Graph

Daily Weather History Graph

Search for Another Location

Airport or City:

Astronomy

Feb. 07, 2014 Rise Set
Actual Time 7:01 AM HST 6:22 PM HST
Civil Twilight 6:39 AM HST 6:45 PM HST
Nautical Twilight 6:12 AM HST 7:11 PM HST
Astronomical Twilight 5:46 AM HST 7:37 PM HST
Moon 12:49 PM HST (2/7) 1:21 AM HST (2/7)
Length of Visible Light 12h 06m
Length of Day
11h 20m
First Quarter, 61% of the Moon is Illuminated
Feb 7
First Quarter
Feb 14
Full
Feb 22
Last Quarter
Feb 28
New
Mar 8
First Quarter

Hourly Weather History & Observations

Time (HST) Temp. Dew Point Humidity Pressure Visibility Wind Dir Wind Speed Gust Speed Precip Events Conditions
12:56 AM 68.9 °F 68.9 °F 100% 29.96 in 10.0 mi East 10.4 mph - N/A   Clear
1:56 AM 70.9 °F 65.8 °F 84% 29.92 in 10.0 mi East 11.5 mph - N/A   Partly Cloudy
2:56 AM 70.0 °F 68.9 °F 96% 29.89 in 10.0 mi ESE 15.0 mph - 0.00 in   Clear
3:31 AM 68.0 °F 68.0 °F 100% 29.98 in 10.0 mi NW 5.8 mph - N/A   Partly Cloudy
3:56 AM 68.0 °F 68.0 °F 100% 29.94 in 10.0 mi NW 10.4 mph - N/A   Clear
4:03 AM 68.0 °F 68.0 °F 100% 29.98 in 10.0 mi NNW 8.1 mph - N/A   Scattered Clouds
4:56 AM 68.0 °F 68.0 °F 100% 29.93 in 10.0 mi NW 3.5 mph - N/A   Clear
5:56 AM 68.9 °F 68.0 °F 97% 29.93 in 10.0 mi ENE 6.9 mph - N/A   Clear
6:56 AM 68.9 °F 65.8 °F 90% 29.95 in 10.0 mi East 3.5 mph - N/A   Clear
7:56 AM 70.9 °F 65.8 °F 84% 29.97 in 10.0 mi Calm Calm - N/A   Clear
8:56 AM 74.8 °F 65.8 °F 73% 29.97 in 10.0 mi Calm Calm - N/A   Clear
9:56 AM 77.0 °F 68.0 °F 74% 29.96 in 10.0 mi NE 12.7 mph - N/A   Partly Cloudy
10:56 AM 77.0 °F 66.9 °F 71% 29.97 in 10.0 mi ENE 3.5 mph - N/A   Scattered Clouds
11:23 AM 75.2 °F 68.0 °F 78% 30.03 in 10.0 mi West 5.8 mph - N/A   Mostly Cloudy
11:56 AM 75.9 °F 68.0 °F 76% 29.94 in 10.0 mi West 4.6 mph - N/A   Mostly Cloudy
12:56 PM 77.9 °F 68.9 °F 74% 29.90 in 10.0 mi Variable 5.8 mph - N/A   Overcast
1:17 PM 75.2 °F 69.8 °F 83% 29.96 in 10.0 mi WSW 10.4 mph - N/A   Overcast
1:45 PM 71.6 °F 69.8 °F 94% 29.94 in 1.8 mi Calm Calm - 0.00 in Rain Rain
1:56 PM 71.6 °F 71.6 °F 100% 29.94 in 1.2 mi Calm Calm - N/A Rain Rain
1:59 PM 71.6 °F 71.6 °F 100% 29.94 in 1.5 mi ENE 4.6 mph - 0.00 in Rain Light Rain
2:03 PM 71.6 °F 71.6 °F 100% 29.94 in 3.0 mi Variable 3.5 mph - 0.00 in Rain Light Rain
2:56 PM 72.0 °F 72.0 °F 100% 29.86 in 10.0 mi ENE 11.5 mph - 0.00 in Rain Light Rain
3:56 PM 74.8 °F 66.9 °F 76% 29.84 in 10.0 mi Variable 3.5 mph - 0.00 in   Mostly Cloudy
4:31 PM 73.4 °F 71.6 °F 94% 29.90 in 10.0 mi South 4.6 mph - N/A   Overcast
4:40 PM 73.4 °F 71.6 °F 94% 29.91 in 10.0 mi SW 3.5 mph - N/A   Scattered Clouds
4:47 PM 73.4 °F 71.6 °F 94% 29.91 in 10.0 mi Calm Calm - N/A   Mostly Cloudy
4:56 PM 73.4 °F 71.6 °F 94% 29.91 in 10.0 mi South 3.5 mph - N/A   Mostly Cloudy
5:08 PM 73.4 °F 71.6 °F 94% 29.91 in 10.0 mi Calm Calm - N/A   Overcast
5:32 PM 71.6 °F 69.8 °F 94% 29.91 in 10.0 mi ENE 9.2 mph - N/A   Mostly Cloudy
5:46 PM 71.6 °F 69.8 °F 94% 29.92 in 10.0 mi ENE 4.6 mph - N/A   Mostly Cloudy
5:56 PM 70.9 °F 68.9 °F 93% 29.86 in 10.0 mi NE 9.2 mph - N/A   Mostly Cloudy
6:05 PM 71.6 °F 69.8 °F 94% 29.93 in 10.0 mi NNE 11.5 mph - N/A   Scattered Clouds
6:28 PM 69.8 °F 69.8 °F 100% 29.94 in 10.0 mi NE 10.4 mph - N/A   Mostly Cloudy
6:56 PM 70.0 °F 70.0 °F 100% 29.90 in 10.0 mi NE 10.4 mph - N/A   Mostly Cloudy
7:43 PM 69.8 °F 69.8 °F 100% 29.97 in 10.0 mi NE 10.4 mph - N/A   Mostly Cloudy
7:56 PM 69.8 °F 69.8 °F 100% 29.97 in 10.0 mi NE 9.2 mph - N/A   Mostly Cloudy
8:16 PM 69.8 °F 69.8 °F 100% 29.98 in 10.0 mi NNE 9.2 mph - N/A   Overcast
8:56 PM 70.0 °F 70.0 °F 100% 29.93 in 10.0 mi NNE 10.4 mph - N/A   Mostly Cloudy
9:56 PM 70.0 °F 70.0 °F 100% 29.93 in 10.0 mi NE 12.7 mph - N/A   Overcast
10:56 PM 68.9 °F 68.9 °F 100% 29.93 in 10.0 mi NE 11.5 mph - N/A   Mostly Cloudy
11:28 PM 69.8 °F 69.8 °F 100% 29.99 in 10.0 mi ENE 6.9 mph - N/A   Overcast
11:56 PM 70.0 °F 70.0 °F 100% 29.92 in 10.0 mi ENE 6.9 mph - N/A   Overcast